Location: Prague
(50.0830°N, 14.4670°E)
Time: 10:27:52
(UTC+02:00)

RS-15 - Pass Details

Date: 01 April 2023
Orbit: 1885 x 2159 km, 64.8° (Epoch: 29 May)

Event Time Altitude Azimuth Distance (km) Brightness Sun altitude
Rises 00:48:46 0° 318° (NW) 5,653 11.1 -35.4°
Reaches altitude 10° 00:52:14 10° 319° (NW) 4,624 10.5 -35.5°
Maximum altitude 01:04:19 84° 234° (SW) 2,061 7.9 -35.6°
Enters shadow 01:06:11 69° 161° (SSE) 2,146 7.8 -35.6°
